Regional Weather Roundup
Issued by NWS

Home | Current Version | Previous Version | Graphics & Text | Print | Product List | Glossary On
Versions: 1 2 3 4 5 6 7 8 9 10 11 12 13 14 15 16 17 18 19 20 21 22 23 24 25 26 27 28 29 30 31 32 33 34 35 36 37 38 39 40 41 42 43 44 45 46 47 48 49 50
000
ASUS43 KLOT 260509
RWRIL

ILLINOIS REGIONAL WEATHER ROUNDUP
NATIONAL WEATHER SERVICE CHICAGO/ROMEOVILLE IL
1200 AM CDT FRI MAY 26 2017

NOTE: "FAIR" INDICATES FEW OR NO CLOUDS BELOW 12,000 FEET WITH NO
SIGNIFICANT WEATHER AND/OR OBSTRUCTIONS TO VISIBILITY.

* THESE STATIONS ARE NOT UNDER NWS QUALITY CONTROL. THEY ALSO MAY NOT
  REPORT WEATHER SUCH AS PRECIPITATION OR FOG.

ILZ001-002-007-009-015-016-024-260600-
NORTHWEST ILLINOIS

CITY           SKY/WX    TMP DP  RH WIND       PRES   REMARKS
MOLINE         PTCLDY    61  55  81 SE9       29.75S
STERLING*      PTCLDY    60  56  86 VRB3      29.77S
SAVANNA*       CLOUDY    56  54  93 CALM      29.76S
$$

ILZ003-004-008-010-011-017-018-260600-
NORTH CENTRAL ILLINOIS

CITY           SKY/WX    TMP DP  RH WIND       PRES   REMARKS
ROCKFORD       MOCLDY    56  53  90 SE3       29.77F
FREEPORT*      PTCLDY    57  54  91 CALM      29.78S
ROCHELLE*      CLOUDY    55  54  95 SE5       29.78F
DE KALB*       PTCLDY    59  54  82 SW5       29.79S
PERU*          CLEAR     56  54  91 S3        29.78F
$$

ILZ005-006-012>014-019>023-260600-
NORTHEAST ILLINOIS

CITY           SKY/WX    TMP DP  RH WIND       PRES   REMARKS
CHICAGO-OHARE  PTCLDY    55  49  80 CALM      29.78R
CHICAGO-MIDWAY PTCLDY    55  50  83 CALM      29.78R
AURORA         CLOUDY    57  54  89 S5        29.79R
LANSING*       CLEAR     50  50 100 CALM      29.80R
JOLIET*        CLOUDY    57  54  91 CALM      29.79R
WAUKEGAN       CLEAR     51  51 100 CALM      29.78R
DUPAGE AIRPORT CLEAR     56  53  90 CALM      29.78R
KANKAKEE*      CLEAR     53  50  89 CALM      29.80S
WHEELING       CLEAR     52  50  93 CALM      29.79R
MORRIS*        CLOUDY    58  54  85 CALM      29.78R
ROMEOVILLE*    CLOUDY    56  55  96 SE3       29.79R
NORTHERLY ISL    N/A     56  50  80 N2          N/A
$$

LMZ740>746-260600-
SOUTHERN LAKE MICHIGAN

STATION/POSITION SKY/WX   TEMP    WIND        PRES    VSBY  WAVE
                          AIR SEA DIR/SP/G                  HT/PER
                          (F)     (DEG/KT/KT) (MB)    (MI)  (FT/S)
SOUTHERN BUOY              48 45  330/ 12/ 14 1007.3          2/ 5
WILMETTE HARBOR            52 51                N/A           2/ 5
HARRISON CRIB              56     320/  5/  6   N/A
BURNHAM HARBOR             57      CALM  /  7   N/A
CALUMET HARBOR             56     310/  3/  5 1008.4R
BURNS HARBOR               54     280/  5/  6 1009.1R
MICHIGAN CITY              52     240/ 10/ 11   N/A
MICHIGAN CITY 6N           51 51  260/  6/  8   N/A           2/ 5
ST. JOSEPH                 51 55  280/ 10/ 10 1008.4          3/ 5
$$

ILZ025>027-034>036-040-047-049-050-058-095>099-260600-
WEST-CENTRAL ILLINOIS

CITY           SKY/WX    TMP DP  RH WIND       PRES   REMARKS
QUINCY         CLOUDY    64  53  67 SW6G18    29.76F
GALESBURG*     CLEAR     60  57  89 E5        29.76S
MACOMB*        PTCLDY    60  56  86 SE5       29.78F
JACKSONVILLE*  CLEAR     58  54  85 SE7       29.79F
PITTSFIELD*    MOCLDY    62  56  80 CALM      29.78F
$$

ILZ028>032-037-038-041>044-048-051>054-059>061-260600-
CENTRAL ILLINOIS

CITY           SKY/WX    TMP DP  RH WIND       PRES   REMARKS
PONTIAC        CLOUDY    55  55  98 CALM      29.80R FOG
BLOOMINGTON    CLEAR     54  52  93 S3        29.82R
DECATUR        CLEAR     58  56  93 SE3       29.82R
PEORIA         CLOUDY    58  56  93 E3        29.79R
LACON*         CLEAR     55  55 100 CALM      29.78S
LINCOLN*       CLOUDY    60  58  92 CALM      29.80S
SPRINGFIELD    CLOUDY    60  56  86 CALM      29.80R
TAYLORVILLE    CLOUDY    57  55  95 CALM      29.81R
$$

ILZ033-039-045-046-055>057-062-063-260600-
EAST-CENTRAL ILLINOIS

CITY           SKY/WX    TMP DP  RH WIND       PRES   REMARKS
CHAMPAIGN      CLEAR     56  53  90 SE3       29.82R
RANTOUL*       CLEAR     55  54  97 CALM      29.81R FOG
MATTOON        CLEAR     58  58 100 SE3       29.81R
PARIS*         CLEAR     54  54  99 CALM      29.83R
$$

ILZ079-100>102-260600-
SOUTHWEST ILLINOIS

CITY           SKY/WX    TMP DP  RH WIND       PRES   REMARKS
ALTON          CLEAR     57  54  89 CALM      29.81R
BELLEVILLE     CLEAR     59  54  84 CALM      29.82R
CAHOKIA*       CLEAR     61  53  75 S3        29.80R
SPARTA*        CLEAR     64  53  67 S6        29.81S
$$

ILZ064>066-069>071-074>076-080>082-084>086-088>090-092>094-260600-
SOUTH-CENTRAL ILLINOIS

CITY           SKY/WX    TMP DP  RH WIND       PRES   REMARKS
CARBONDALE     CLEAR     60  55  83 CALM      29.82R
CAIRO*         CLEAR     64  53  68 S5        29.82S
EFFINGHAM*     CLEAR     56  56 100 CALM      29.83R
MARION         PTCLDY    61  54  77 SW3       29.83R
MT. VERNON       N/A     53  53 100 CALM      29.82R FOG
CENTRALIA*     CLEAR     58  57  96 CALM      29.81R
SALEM*         CLEAR     60  55  85 CALM      29.82R
METROPOLIS*    PTCLDY    61  52  71 S3        29.84R
$$

ILZ067-068-072-073-078-083-087-091-260600-
SOUTHEAST ILLINOIS

CITY           SKY/WX    TMP DP  RH WIND       PRES   REMARKS
LAWRENCEVILLE  CLEAR     59  58  96 NE3       29.82R
FLORA*         CLEAR     58  56  93 CALM      29.82S
FAIRFIELD*     CLEAR     58  56  94 CALM      29.81R
HARRISBURG*    PTCLDY    57  54  89 CALM      29.83R
ROBINSON*      CLEAR     56  56 100 CALM      29.83R FOG
CARMI*         CLEAR     57  56  94 CALM      29.82R
$$

ABBREVIATIONS USED IN REMARKS
   TC - TEMPERATURE IN CELSIUS
  WCI - WIND CHILL INDEX
   HX - HEAT INDEX
  VSB - VISIBILITY
$$





USA.gov is the U.S. government's official web portal to all federal, state and local government web resources and services.